This demonstration page uses our WeatherBlox Daily Observations layout. Learn more.

Left ArrowRight Arrow

Hourly Observations for August 17, 2022

Temp ( °F °C ) Dew Point ( °F °C ) Humidity (%) Winds ( mph kmh ) Pressure ( in mb ) Visibility ( mi km ) Precip ( " mm )
1:54 am 01:54 Clear 61 16.1 59 15 93 93 N 5 7 30.11 1020 8 13 0.00 0.00
2:54 am 02:54 Clear 60 15.6 58 14.4 93 93 NNW 5 7 30.12 1020 8 13 0.00 0.00
3:54 am 03:54 Clear with Mist and Fog 59 15 57 13.9 93 93 N 5 7 30.13 1020 5 8 0.00 0.00
4:54 am 04:54 Clear with Mist and Fog 59 15 58 14.4 96 96 N 7 11 30.13 1020 6 10 0.00 0.00
5:54 am 05:54 Clear 59 15 57 13.9 93 93 NNW 6 9 30.14 1021 7 11 0.00 0.00
6:54 am 06:54 Sunny with Mist and Fog 58 14.4 56 13.3 93 93 N 5 7 30.16 1021 3 5 0.00 0.00
7:54 am 07:54 Sunny with Mist and Fog 62 16.7 59 15 90 90 N 3 6 30.17 1022 4 6 0.00 0.00
8:54 am 08:54 Sunny 68 20 63 17.2 84 84 N 3 6 30.17 1022 7 11 0.00 0.00
9:54 am 09:54 Sunny 73 22.8 62 16.7 68 68 Calm 30.17 1022 10 16 0.00 0.00
10:54 am 10:54 Sunny 78 25.6 61 16.1 56 56 VRB 3 6 30.16 1021 10 16 0.00 0.00
11:54 am 11:54 Partly Cloudy 81 27.2 59 15 47 47 NNE 7 11 30.16 1021 10 16 0.00 0.00
12:54 pm 12:54 Partly Cloudy 81 27.2 59 15 47 47 NE 7 11 30.15 1021 10 16 0.00 0.00
1:54 pm 13:54 Partly Cloudy 82 27.8 59 15 46 46 VRB 6 9 30.13 1020 10 16 0.00 0.00
2:54 pm 14:54 Partly Cloudy 85 29.4 60 15.6 43 43 undefined N/A 30.12 1020 10 16 0.00 0.00
3:54 pm 15:54 Mostly Sunny 84 28.9 58 14.4 41 41 E 3 6 30.11 1020 10 16 0.00 0.00
4:54 pm 16:54 Mostly Cloudy 85 29.4 60 15.6 43 43 ENE 7 11 30.10 1019 10 16 0.00 0.00
5:54 pm 17:54 Mostly Sunny 81 27.2 59 15 47 47 E 6 9 30.10 1019 10 16 0.00 0.00
6:54 pm 18:54 Mostly Cloudy 83 28.3 59 15 44 44 NE 7 11 30.08 1019 10 16 0.00 0.00
7:54 pm 19:54 Sunny 79 26.1 59 15 50 50 NE 6 9 30.07 1018 10 16 0.00 0.00
8:54 pm 20:54 Clear 76 24.4 58 14.4 54 54 ESE 3 6 30.08 1019 10 16 0.00 0.00
9:54 pm 21:54 Clear 72 22.2 59 15 64 64 Calm 30.09 1019 10 16 0.00 0.00
10:54 pm 22:54 Clear 65 18.3 59 15 81 81 Calm 30.09 1019 10 16 0.00 0.00
11:54 pm 23:54 Clear 65 18.3 60 15.6 84 84 N 3 6 30.09 1019 10 16 0.00 0.00

Powered by AerisWeather